DW4230 Weather Reports


time (UTC)temp
C
wind
direction
speed
KPH
gust
KPH
rain 1hr
cm
rain 24hr
cm
rain mn
cm
humidity
%
barometer
mb
20260904133039 24 274 4.8 14.5 0.00 0.05 0.00 88 1007.7
20260904131610 23 267 4.8 12.9 0.00 0.05 0.00 89 1007.8
20260904130042 23 277 4.8 11.3 0.00 0.05 0.00 91 1007.9
20260904124554 22 255 4.8 11.3 0.00 0.05 0.00 91 1007.9
20260904123012 22 263 6.4 12.9 0.00 0.33 0.00 92 1008.1
20260904121547 22 262 3.2 14.5 0.00 0.33 0.00 94 1008.1
20260904120013 22 266 4.8 12.9 0.00 0.33 0.00 95 1008.1
20260904114554 21 270 4.8 11.3 0.00 0.33 0.00 95 1008.2
20260904113022 21 248 1.6 14.5 0.00 0.43 0.00 95 1008.3
20260904111611 21 258 1.6 14.5 0.00 0.43 0.00 95 1008.2
20260904110036 21 264 1.6 6.4 0.00 0.43 0.00 95 1008.2
20260904104611 21 264 0.0 4.8 0.00 0.43 0.00 95 1008.2
20260904103031 21 264 1.6 4.8 0.00 1.65 0.00 95 1007.9
20260904101609 21 264 0.0 0.0 0.00 1.65 0.00 95 1007.8
20260904100043 21 264 0.0 0.0 0.00 1.65 0.00 95 1007.7
20260904094531 21 264 0.0 0.0 0.00 1.65 0.00 94 1007.5
20260904090007 21 264 0.0 6.4 0.00 2.21 0.00 94 1007.8
20260904084543 21 264 3.2 9.7 0.00 2.21 0.00 94 1007.8
20260904083104 21 275 4.8 11.3 0.00 2.24 0.00 94 1007.7
20260904081537 21 279 1.6 4.8 0.00 2.24 0.00 94 1007.7
20260904080111 21 279 0.0 0.0 0.00 2.24 0.00 94 1007.6
20260904074527 21 279 0.0 0.0 0.00 2.24 0.00 94 1007.7
20260904073106 21 279 0.0 0.0 0.00 2.24 0.00 94 1007.6
20260904071527 21 279 0.0 3.2 0.00 2.24 0.00 94 1008.2
20260904070105 21 279 0.0 3.2 0.00 2.24 0.00 94 1008.2
20260904064517 21 279 0.0 3.2 0.00 2.24 0.00 94 1008.4
20260904063048 21 279 0.0 0.0 0.00 2.24 0.00 94 1008.4
20260904061519 21 279 0.0 6.4 0.00 2.24 0.00 94 1008.4
20260904060100 21 278 0.0 6.4 0.00 2.24 0.00 94 1008.5
20260904054529 21 267 1.6 6.4 0.00 2.24 0.00 94 1008.6
20260904044533 21 277 3.2 8.0 0.00 2.24 0.00 94 1009.4
20260904043109 21 279 1.6 8.0 0.00 2.24 2.24 94 1009.5
20260904041536 21 274 3.2 11.3 0.00 2.24 2.24 94 1009.5
20260904040003 21 272 3.2 11.3 0.00 2.24 2.24 94 1009.4
20260904034552 21 280 3.2 9.7 0.00 2.24 2.24 94 1009.7
20260904033015 21 285 0.0 0.0 0.00 2.24 2.24 94 1010.0
20260904031552 21 285 0.0 11.3 0.00 2.24 2.24 94 1009.7
20260904030016 21 283 0.0 4.8 0.00 2.24 2.24 94 1009.7
20260904024555 21 124 4.8 11.3 0.00 2.24 2.24 94 1010.0
20260904023021 21 276 1.6 4.8 0.00 2.24 2.24 94 1010.1
20260904021609 21 276 0.0 4.8 0.00 2.24 2.24 94 1010.2
20260904020036 21 277 1.6 6.4 0.00 2.24 2.24 94 1010.2
20260904014631 21 272 0.0 0.0 0.00 2.24 2.24 93 1010.4
20260904013039 21 272 0.0 0.0 0.00 2.24 2.24 93 1010.9
20260904011505 21 272 0.0 4.8 0.00 2.24 2.24 93 1010.7
20260904010045 22 272 0.0 6.4 0.00 2.24 2.24 93 1010.6
20260904004504 22 279 3.2 8.0 0.00 2.24 2.24 93 1010.6
20260904003043 22 279 0.0 4.8 0.00 2.24 2.24 93 1010.3
20260904001518 22 280 1.6 8.0 0.00 2.24 2.24 93 1010.0
20260904000112 22 279 1.6 9.7 0.00 2.24 2.24 93 1010.1
20260903234510 22 279 0.0 4.8 0.00 2.24 2.24 93 1009.9
20260903233050 22 279 3.2 6.4 0.00 2.24 2.24 93 1009.7
20260903231529 22 275 0.0 8.0 0.00 2.24 2.24 92 1009.7
20260903230054 22 124 4.8 12.9 0.00 2.24 2.24 92 1009.8
20260903224531 22 253 4.8 14.5 0.00 2.24 2.24 91 1010.0
20260903223051 23 283 9.7 17.7 0.00 2.24 2.24 90 1010.0
20260903221613 23 124 4.8 16.1 0.00 2.24 2.24 90 1010.1
20260903220046 23 247 8.0 27.4 0.00 2.24 2.24 90 1010.0
20260903214526 23 256 8.0 19.3 0.00 2.24 2.24 90 1009.9
20260903213102 23 250 6.4 22.5 0.00 2.24 2.24 90 1009.9
20260903211524 23 124 9.7 22.5 0.00 2.24 2.24 90 1010.0
20260903210126 23 264 9.7 24.1 0.00 2.24 2.24 91 1010.0
20260903204519 23 254 6.4 24.1 0.00 2.24 2.24 89 1010.0
20260903203107 23 253 12.9 25.7 0.00 2.24 2.24 89 1010.0
20260903201512 23 216 12.9 22.5 0.00 2.24 2.24 89 1010.0
20260903200045 23 232 8.0 20.9 0.00 2.24 2.24 89 1010.3
20260903194511 24 252 9.7 17.7 0.00 2.24 2.24 88 1010.3
20260903193047 24 124 6.4 17.7 0.00 2.24 2.24 89 1010.7
20260903191514 24 124 11.3 19.3 0.00 2.24 2.24 89 1010.9
20260903190050 24 217 11.3 19.3 0.00 2.24 2.24 89 1010.9
20260903184517 23 248 4.8 17.7 0.00 2.24 2.24 90 1011.1
20260903183058 23 255 6.4 17.7 0.00 2.24 2.24 90 1011.5
20260903181524 23 124 6.4 17.7 0.00 2.24 2.24 91 1011.5
20260903180109 23 251 3.2 19.3 0.00 2.24 2.24 91 1011.4
20260903174536 23 252 8.0 20.9 0.00 2.24 2.24 92 1011.5
20260903173005 22 124 8.0 20.9 0.00 2.24 2.24 93 1011.5
20260903171541 22 124 9.7 20.9 0.00 2.24 2.24 93 1011.9
20260903170012 22 242 11.3 22.5 0.00 2.24 2.24 94 1011.9
20260903164602 22 124 3.2 14.5 0.00 2.24 2.24 95 1011.6
20260903163013 22 124 6.4 12.9 0.00 2.24 2.24 95 1011.6
20260903161546 22 124 6.4 12.9 0.00 2.24 2.24 95 1011.6
20260903160007 22 253 4.8 9.7 0.00 2.24 2.24 95 1011.7
20260903154606 22 124 6.4 14.5 0.00 2.24 2.24 96 1011.8
20260903153019 22 124 1.6 12.9 0.00 2.24 2.24 96 1011.8
20260903151556 22 242 3.2 12.9 0.00 2.24 2.24 96 1012.2
20260903150023 22 247 3.2 12.9 0.00 2.24 2.24 96 1012.5
20260903144607 22 243 6.4 17.7 0.00 2.24 2.24 96 1012.5
20260903143036 21 254 8.0 16.1 0.00 2.24 2.24 96 1012.6
20260903141614 21 124 3.2 19.3 0.00 2.24 2.24 96 1013.3
20260903140016 21 231 6.4 20.9 0.00 2.24 2.24 96 1013.2
20260903134557 21 124 9.7 22.5 0.05 2.24 2.24 96 1013.3